Location: 5810 Zion Rd, Cleves, OH 45002, USA
(39.1922°N, 84.7113°W)
Time: 04:04:27
(UTC-05:00)

Courier 1B Rocket - Pass Details

Date: 12 December 2019
Orbit: 920 x 1202 km, 28.2° (Epoch: 24 January)

Event Time Altitude Azimuth Distance (km) Brightness Sun altitude
Rises 04:34:48 0° 210° (SSW) 3,972 - -36.7°
Reaches altitude 10° 04:39:03 10° 189° (S) 2,957 - -35.9°
Exits shadow 04:40:33 13° 178° (S) 2,717 7.3 -35.6°
Maximum altitude 04:42:52 15° 157° (SSE) 2,546 7.4 -35.1°
Drops below altitude 10° 04:46:33 10° 124° (SE) 2,848 8.0 -34.4°
Sets 04:50:30 0° 103° (ESE) 3,740 9.1 -33.7°
